アトラス彗星

C/2023 C2 ( ATLAS )

English version
Home page
Updated on October 14, 2023

---------------------------------------------------------------------

・ プロフィール

発見日 2023年2月1日
発見光度 19.1等
発見者 Asteroid Terrestrial-Impact Last Alert System (ATLAS) search program

・ 写真集

・ 軌道要素

Epoch 2023 Feb. 25.0 TT = JDT 2460000.5
T 2024 Nov. 16.77776 TT                                 Rudenko
q   2.3681396            (2000.0)            P               Q
z  +0.0002510      Peri.  357.44171     +0.48965232     +0.59222151
 +/-0.0000023      Node   301.03747     -0.78612344     -0.01762040
e   0.9994056      Incl.   48.31918     -0.37716117     +0.80558252
>From 160 observations 2023 Feb. 1-July 5, mean residual 0".4.

・ 星図

・ 光度変化

        m1 = 7.0 + 5 logΔ + 10.0 log r

---------------------------------------------------------------------

軌道要素はM.P.E.C. 2023-N16に掲載されたものです。
星図はステラナビゲータ Ver.11 (アストロアーツ) で作成したものです。
光度グラフはComet for Windowsで作成したものです。

---------------------------------------------------------------------

Copyright(C) Seiichi Yoshida (comet@aerith.net). All rights reserved.